Showing default

CARTOSAT 2F, 43111

Orbit data source: Space-Track

CARTOSAT 2F, 43111 is a payload satellite owned by ISRO (IN) in SSO that was launched on Fri, 12 Jan 2018 UTC via a PSLV-XL launch vehicle from the Sirharikota (SRI). Payload-class satellites include a variety of spacecraft equipped with specific instruments for various scientific and technological missions. These include communications satellites like Starlink; space stations such as the ISS; scientific satellites like the Hubble; Earth observation satellites from companies like Planet Labs, Umbra, and HawkEye 360; GPS; miniature CubeSats for education and research; and military/defense satellites.

Loading next visibility...
Identifier
43111, 2018-004A
Orbit
SSO
Country
Flag of ININ / IND
Related business
Manufacturer
ISRO
Mission
Operational Defense Imaging
Bus & Motor
IRS-2, AOCS
Mass
712 kg wet, 639 kg dry
Launch date (UTC)
2018-01-12 (8 years ago)
Launch vehicle
PSLV-XL
Launch site
Sirharikota (SRI)
Object type
Payload
Rocket body
Debris
Shape & HBR
Hex Cyl + 2 Pan, 4.0 m
Radar Cross Section
9.780 m², Large (>1 m²)

Expand to show TLE details & history
Last TLE update: 23 hours ago

TLE from 23 hours ago
0 CARTOSAT 2F
1 43111U 18004A   26172.48967356  .00003566  00000-0  17250-3 0  9997
2 43111  97.4787 232.0827 0001151 183.3047 176.8180 15.19244053467981
Epoch: 2026-06-21T11:45Z
TLE epoch observation values (Epoch: 2026-06-21T11:45:07.795Z)
Latitude
-0.00004°
Longitude
146.11102°
Altitude
512.003 km
Speed
7.607 km/s
True Right ascension
15h 28m 19s
True Declination
0° 00' 00"
Sunlit
Object was in full shadow at epoch
Visualization orbit readout
Latitude
Unknown
Longitude
Unknown
Altitude
Unknown
Speed
Unknown
Apparent Right ascension
Unknown
Apparent Declination
Unknown
Sunlit
N/A
Visualization observer readout
Local Sidereal Time
21:41:16
Azimuth
Unknown
Elevation
Unknown
Doppler factor
Unknown
Orbital elements
Apogee altitude
505.886 km
Perigee altitude
504.302 km
Semi-major axis
6,883.231 km
Eccentricity
0.00012
Inclination
97.4787°
RAAN
232.0827°
Arg. of periapsis
183.3047°
True anomaly
176.81873°
Mean anomaly
176.818°
Eccentric anomaly
176.81837°
Mean motion
3.80062 °/min
Orbital period
94.72 mins
BSTAR
0.0001725
Loading maneuver chart data...
Computing Atmospheric mass density...

Documentation

Showing up to 5 results
|